Regional Weather Roundup
Issued by NWS Charleston, SC

Current Version | Previous Version | Graphics & Text | Print | Product List | Glossary On
Versions: 1 2 3 4 5 6 7 8 9 10 11 12 13 14 15 16 17 18 19 20 21 22 23 24 25 26 27 28 29 30 31 32 33 34 35 36 37 38 39 40 41 42 43 44 45 46 47 48 49 50
000
ASUS42 KCHS 040112
RWRCHS

REGIONAL WEATHER ROUNDUP
NATIONAL WEATHER SERVICE CHARLESTON SC
900 PM EDT THU SEP 03 2015

NOTE: "FAIR" INDICATES FEW OR NO CLOUDS BELOW 12,000 FEET WITH NO
SIGNIFICANT WEATHER AND/OR OBSTRUCTIONS TO VISIBILITY.

NOT ALL STATIONS ARE QUALITY CONTROLLED BY THE NATIONAL
WEATHER SERVICE. USE DATA WITH CAUTION...ESPECIALLY
DEWPOINT OBSERVATIONS.

SCZ027-030-031-034>040-042>050-040200-
...SOUTHEAST SOUTH CAROLINA...

CITY           SKY/WX    TMP DP  RH WIND       PRES   REMARKS
N CHARLESTON   MOCLDY    79  74  84 S3        29.91R
WATERFRONT PRK   N/A     81  76  85 S5        29.88S
MOUNT PLEASANT FAIR      79  75  89 CALM      29.91S
JOHNS ISLAND   FAIR      79  77  94 CALM      29.91R
PINOPOLIS        N/A     84  75  74 VRB3      29.82S HX  92
MONCKS CORNER  FAIR      81  75  83 CALM      29.91R
SUMMERVILLE    FAIR      79  77  94 CALM      29.92R
BEAUFORT MCAS  MOCLDY    80  75  84 CALM      29.91R
BEAUFORT ARPT  FAIR      79  77  94 CALM      29.91R
HILTON HEAD IS MOCLDY    79  77  94 CALM      29.92S
WALTERBORO     MOCLDY    81  73  78 E3        29.92R
ALLENDALE      FAIR      81  77  89 CALM      29.90R

...SOUTHERN MIDLANDS AND PEE DEE...

CITY           SKY/WX    TMP DP  RH WIND       PRES   REMARKS
GEORGETOWN     NOT AVBL
KINGSTREE      NOT AVBL
ORANGEBURG     CLOUDY    81  74  79 CALM      29.91R
BARNWELL       FAIR      81  75  83 CALM      29.91R
AIKEN          FAIR      79  68  69 CALM      29.95R
MANNING        FAIR      79  72  78 CALM      29.91R
COLUMBIA       MOCLDY    83  72  69 S3        29.91R
SUMTER         CLOUDY    82  71  69 NW3       29.89R
FLORENCE       CLOUDY    81  68  64 W6        29.90R
MYRTLE BEACH   MOCLDY    75  70  83 W3        29.92R
N MYRTLE BEACH MOCLDY    74  71  91 SW5       29.89R

$$

GAZ063-065-086>088-099>101-113>116-118-119-134>141-150-040200-
...SOUTHEAST GEORGIA...

CITY           SKY/WX    TMP DP  RH WIND       PRES   REMARKS
SAVANNAH ARPT  CLOUDY    81  76  84 S5        29.91R
HUNTER AAF     MOCLDY    80  80  99 SE5       29.89R HX  90
FORT STEWART   MOCLDY    82  78  87 CALM      29.89R HX  90
STATESBORO     MOCLDY    80  78  94 CALM      29.91R
SYLVANIA       NOT AVBL
CLAXTON        NOT AVBL

...CSRA...CENTRAL AND FAR SOUTHEAST GEORGIA...

CITY           SKY/WX    TMP DP  RH WIND       PRES   REMARKS
THOMSON        PTCLDY    80  79  97 CALM      29.96R
AUGUSTA-BUSH   MOCLDY    79  76  90 CALM      29.90R
AUGUSTA-DANIEL MOCLDY    85  73  67 CALM      29.92R HX  91
SWAINSBORO     FAIR      81  77  89 CALM      29.93R
VIDALIA        MOCLDY    81  77  89 CALM      29.92R
EASTMAN        FAIR      79  79 100 CALM      29.94S
HAZLEHURST     FAIR      82  82 100 CALM      29.91R HX  96
ALMA           MOCLDY    79  77  94 CALM      29.91S
WAYCROSS       CLOUDY    82  81  98 CALM      29.91S HX  95
JESUP          FAIR      82  81  94 CALM      29.91S HX  95
BAXLEY         FAIR      81  79  94 CALM      29.91S
BRUNSWICK      CLOUDY    77  77 100 CALM      29.91S
SAINT SIMONS   CLOUDY    78  76  93 CALM      29.90S

$$

SCZ027-028-034-036>038-045-046-048>050-GAZ119-141-040200-
...LAKE AND SUPPLEMENTAL COASTAL OBSERVATIONS...

STATION/POSITION TIME  TEMP    WIND        PRES    WAVE   SWELL
                       AIR SEA DIR/SP/G            HT/PER HT/PER/DIR
                 (UTC) (F)     (DEG/KT/KT) (MB)    (FT/S) (FT/S/D)
UPR LAKE MARION  NOT AVBL
WINYAH BAY       2345   77      90/  8     1012.0
LAKE MURRAY      0000   85     230/  3/  4 1011.9R
ACE BASIN NERRS  NOT AVBL
FORT PULASKI     0000   81 83  130/  3/  4 1012.9R
SAPELO ISLAND    0000   81        CALM     1012.0S

$$

ANZ835-935-AMZ111-154-330-350-352-354-370-450-454-472-040200-
...C-MAN AND BUOY OBSERVATIONS...

STATION/POSITION TIME  TEMP    WIND        PRES    WAVE   SWELL
                       AIR SEA DIR/SP/G            HT/PER HT/PER/DIR
                 (UTC) (F)     (DEG/KT/KT) (MB)    (FT/S) (FT/S/D)
BUOY 41004       0050   81 84  180/  8/  8 1012.4R   1/ 8   2/ 8
BUOY 41008       0050   81 84   70/  4/  6 1012.9R   2/ 8   2/120/ 8
FOLLY BEACH CMAN 0000   81     160/  4/  6 1012.7R
CAPERS NEARSHORE 0008   82     200/  6/  8 1012.8R
FRIPP NEARSHORE  0000   81     160/  4/  6 1012.1


STATION/POSITION TIME  TEMP    WIND        PRES    WAVE   SWELL
                       AIR SEA DIR/SP/G            HT/PER HT/PER/DIR
                 (UTC) (F)     (DEG/KT/KT) (MB)    (FT/S) (FT/S/D)
5E ST. MARYS GA  0021      85                N/A     2/ 8
FRYING PAN BUOY  0050   81 81  240/  8/ 10 1012.7R   2/ 3   2/140/ 8
BUOY 41025       0050   81 85  280/  6/  8 1012.4R   1/ 8   2/140/ 8
CAPE LOOKOUT NC  0000   80     240/  4/  4 1011.7F
BUOY 41002       0050   83 84  300/  6/  8 1012.6R   2/13   2/140/13
BUOY 41010       0020   84 86  230/  4/  6 1012.7S
ST AUGUSTINE FL  0100   83 85   60/  3/  3 1014.0R


$$


USA.gov is the U.S. government's official web portal to all federal, state and local government web resources and services.